Location: Dos Palmas
(32.4468°N, 116.8732°W)
Time: 23:35:56
(UTC+00:00)

Cosmos 2263 Rocket - Pass Details

Date: 20 June 2021
Orbit: 822 x 850 km, 71.0° (Epoch: 01 August)

Event Time Altitude Azimuth Distance (km) Brightness Sun altitude
Rises 04:29:37 0° 330° (NNW) 3,416 6.8 -16.6°
Reaches altitude 10° 04:32:11 10° 323° (NW) 2,478 5.9 -17.0°
Maximum altitude 04:37:27 40° 256° (WSW) 1,233 3.3 -17.8°
Enters shadow 04:42:09 13° 190° (S) 2,273 4.1 -18.5°
